Terug naar catalogus

STARLINK-38291

ActiefCommunicatieSSO
NORAD 100393·PAYLOAD·🇺🇸 United States

Gelanceerd Aug 19, 2026 vanaf Vandenberg Space Force Base

Loading…

Volgende Passages (komende 24 uur)

TLE

VersSource: Space-Track

Epoch: Sep 14, 2026, 21:10 UTC

1 A0393U 26190Y   26257.88253031 -.00085526  00000-0 -11692-2 0  9994
2 A0393  97.2839 111.9996 0001362 183.3456 176.7791 15.57661618  5495

Volg STARLINK-38291 in realtime met AllMySat

Download on the App Store